Weather in Tweed Heads

Australia     28°11′09″S   153°31′32″E
temp.,
°C
wind,
m/s
gust,
m/s
humid.,
%
clouds,
%
prec.,
mm/h
press.,
hPa
HPBL,
m
14 may, fri
fri1401:00+12wsw22710 0.0 101255
04:00+11wsw22710 0.0 101151
07:00+12wsw11670 0.0 101346
10:00+20sse11410 0.0 1014452
13:00+21ne22400 0.0 1012771
16:00+19e13600 0.0 1012178
19:00+14wsw11780 0.0 101536
22:00+12w21854 0.0 101538
15 may, sat
sat1501:00+12wsw22840 0.0 101544
04:00+12wsw22810 0.0 101444
07:00+12w11820 0.0 101655
10:00+20n24575 0.0 1015826
13:00+21nne33495 0.0 10121146
16:00+20wnw12600 0.0 1012179
19:00+14sw2285100 0.0 101565
22:00+12sw396830 0.0 1017212
16 may, sun
sun1601:00+12ssw4126612 0.0 1018413
04:00+9ssw38770 0.0 1019230
07:00+9sw37740 0.0 1021154
10:00+17s36550 0.0 1021773
13:00+19sse33516 0.0 10201329
16:00+18sse24620 0.0 1020478
19:00+12ssw22870 0.0 102295
22:00+10sw229213 0.0 102254
17 may, mon
mon1701:00+10wsw22890 0.0 102249
04:00+10wsw22860 0.0 102253
07:00+10wsw11790 0.0 102352
10:00+18nne01480 0.0 1023520
13:00+20e32480 0.0 10211031
16:00+17sse37630 0.0 1022642
19:00+11ssw35860 0.0 1026118
22:00+11ssw36864 0.0 1027150
18 may, tue
tue1801:00+11ssw358599 0.0 1026128
04:00+10sw268571 0.1 1026131
07:00+12ssw36784 0.0 1028177
10:00+17ssw376624 0.0 1028544
13:00+18s376483 0.0 1026868
16:00+17s37704 0.2 1026721
19:00+13ssw248688 0.1 1027124
22:00+14ssw257786 0.1 1028150